Weather History for KRPD - January, 2013

Change the Weather History Date:

Thursday, January 3, 2013

  Actual Average Record
Temperature  
Mean Temperature 16 °F -  
Max Temperature 21 °F 22 °F 30 °F (2015)
Min Temperature 10 °F 7 °F 12 °F (2015)
Degree Days  
Heating Degree Days 50    
Moisture  
Dew Point 12 °F    
Average Humidity 81    
Maximum Humidity 93    
Minimum Humidity 68    
Precipitation  
Precipitation 0.00 in - - ()
Sea Level Pressure  
Sea Level Pressure 30.12 in    
Wind  
Wind Speed 5 mph (WSW)    
Max Wind Speed 10 mph    
Max Gust Speed -    
Visibility 7 miles    
Events Snow    
Averages and records for this station are not official NWS values.
T = Trace of Precipitation, MM = Missing Value Source: NWS Daily Summary

Daily Weather History Graph

Daily Weather History Graph

Search for Another Location

Airport or City:

Trip Planner

Search our weather history database for the weather conditions in past years. The results will help you decide how hot, cold, wet, or windy it might be!

Date:

Astronomy

Jan. 03, 2013 Rise Set
Actual Time 7:46 AM CST 4:36 PM CST
Civil Twilight 7:13 AM CST 5:10 PM CST
Nautical Twilight 6:35 AM CST 5:48 PM CST
Astronomical Twilight 5:59 AM CST 6:23 PM CST
Moon 11:33 PM CST (1/3) 10:39 AM CST (1/3)
Length of Visible Light 9h 57m
Length of Day
8h 50m
Waning Gibbous, 65% of the Moon is Illuminated
Jan 3
Waning Gibbous
Jan 4
Last Quarter
Jan 11
New
Jan 18
First Quarter
Jan 26
Full

Hourly Weather History & Observations

Time (CST) Temp. Windchill Dew Point Humidity Pressure Visibility Wind Dir Wind Speed Gust Speed Precip Events Conditions
12:15 AM 15.8 °F 10.2 °F 12.2 °F 86% 30.03 in 3.0 mi West 3.5 mph - N/A   Overcast
12:35 AM 15.8 °F - 12.2 °F 86% 30.03 in 3.0 mi Calm Calm - N/A   Overcast
12:55 AM 15.8 °F 10.2 °F 14.0 °F 93% 30.04 in 2.5 mi West 3.5 mph - N/A Snow Light Snow
1:15 AM 15.8 °F - 14.0 °F 93% 30.03 in 2.5 mi Calm Calm - N/A Snow Light Snow
1:35 AM 15.8 °F 10.2 °F 14.0 °F 93% 30.04 in 1.8 mi West 3.5 mph - N/A Snow Light Snow
1:55 AM 17.6 °F 10.7 °F 14.0 °F 86% 30.04 in 2.5 mi West 4.6 mph - N/A Snow Light Snow
2:15 AM 17.6 °F 12.3 °F 14.0 °F 86% 30.04 in 2.5 mi West 3.5 mph - N/A Snow Light Snow
2:35 AM 17.6 °F 10.7 °F 14.0 °F 86% 30.05 in 2.5 mi West 4.6 mph - N/A Snow Light Snow
2:55 AM 17.6 °F 12.3 °F 14.0 °F 86% 30.06 in 2.0 mi West 3.5 mph - N/A Snow Light Snow
3:15 AM 17.6 °F 12.3 °F 14.0 °F 86% 30.06 in 2.0 mi West 3.5 mph - N/A Snow Light Snow
3:35 AM 17.6 °F 12.3 °F 14.0 °F 86% 30.06 in 2.0 mi West 3.5 mph - N/A Snow Light Snow
4:35 AM 19.4 °F 12.8 °F 17.6 °F 93% 30.06 in 2.5 mi West 4.6 mph - N/A Snow Light Snow
4:55 AM 19.4 °F 11.5 °F 17.6 °F 93% 30.07 in 2.5 mi West 5.8 mph - N/A Snow Light Snow
5:15 AM 19.4 °F 11.5 °F 17.6 °F 93% 30.08 in 2.5 mi West 5.8 mph - N/A Snow Light Snow
5:35 AM 19.4 °F 14.3 °F 17.6 °F 93% 30.08 in 2.5 mi West 3.5 mph - N/A Snow Light Snow
5:55 AM 21.2 °F 13.6 °F 17.6 °F 86% 30.10 in 3.0 mi West 5.8 mph - N/A Snow Light Snow
6:15 AM 21.2 °F 11.7 °F 17.6 °F 86% 30.10 in 5.0 mi WNW 8.1 mph - N/A   Overcast
6:35 AM 21.2 °F 12.6 °F 17.6 °F 86% 30.10 in 5.0 mi WNW 6.9 mph - N/A Snow Light Snow
6:55 AM 21.2 °F 11.7 °F 17.6 °F 86% 30.11 in 5.0 mi WNW 8.1 mph - N/A   Overcast
7:15 AM 21.2 °F 13.6 °F 17.6 °F 86% 30.12 in 5.0 mi WNW 5.8 mph - N/A   Overcast
7:35 AM 21.2 °F 10.1 °F 17.6 °F 86% 30.12 in 5.0 mi WNW 10.4 mph - N/A   Overcast
8:15 AM 19.4 °F 8.6 °F 17.6 °F 93% 30.13 in 7.0 mi WNW 9.2 mph - N/A   Overcast
8:35 AM 19.4 °F 11.5 °F 17.6 °F 93% 30.13 in 10.0 mi WNW 5.8 mph - N/A   Overcast
8:55 AM 19.4 °F 11.5 °F 15.8 °F 86% 30.14 in 7.0 mi WNW 5.8 mph - N/A Snow Light Snow
9:15 AM 19.4 °F 9.5 °F 15.8 °F 86% 30.15 in 7.0 mi WNW 8.1 mph - N/A Snow Light Snow
9:35 AM 19.4 °F 11.5 °F 14.0 °F 80% 30.16 in 7.0 mi NNW 5.8 mph - N/A Snow Light Snow
9:55 AM 19.4 °F 12.8 °F 14.0 °F 80% 30.17 in 7.0 mi WNW 4.6 mph - N/A Snow Light Snow
10:15 AM 19.4 °F 8.6 °F 14.0 °F 80% 30.18 in 5.0 mi West 9.2 mph - N/A Snow Light Snow
10:35 AM 19.4 °F 10.4 °F 14.0 °F 80% 30.18 in 4.0 mi WNW 6.9 mph - N/A Snow Light Snow
10:55 AM 19.4 °F 9.5 °F 12.2 °F 74% 30.18 in 5.0 mi WNW 8.1 mph - N/A Snow Light Snow
11:15 AM 19.4 °F 8.6 °F 12.2 °F 74% 30.18 in 5.0 mi WNW 9.2 mph - N/A Snow Light Snow
11:35 AM 19.4 °F 10.4 °F 14.0 °F 80% 30.17 in 4.0 mi West 6.9 mph - N/A Snow Light Snow
11:55 AM 19.4 °F 10.4 °F 14.0 °F 80% 30.17 in 7.0 mi West 6.9 mph - N/A Snow Light Snow
12:15 PM 19.4 °F 10.4 °F 12.2 °F 74% 30.16 in 7.0 mi West 6.9 mph - N/A Snow Light Snow
12:35 PM 19.4 °F 10.4 °F 12.2 °F 74% 30.16 in 10.0 mi West 6.9 mph - N/A   Overcast
12:55 PM 19.4 °F 8.6 °F 12.2 °F 74% 30.15 in 10.0 mi West 9.2 mph - N/A Snow Light Snow
1:15 PM 19.4 °F 9.5 °F 12.2 °F 74% 30.15 in 10.0 mi WSW 8.1 mph - N/A   Overcast
1:35 PM 19.4 °F 9.5 °F 12.2 °F 74% 30.14 in 10.0 mi SW 8.1 mph - N/A   Overcast
1:55 PM 19.4 °F 11.5 °F 12.2 °F 74% 30.15 in 10.0 mi West 5.8 mph - N/A   Overcast
2:15 PM 17.6 °F 7.3 °F 12.2 °F 79% 30.16 in 10.0 mi West 8.1 mph - N/A   Mostly Cloudy
2:35 PM 19.4 °F 10.4 °F 12.2 °F 74% 30.15 in 10.0 mi WSW 6.9 mph - N/A   Mostly Cloudy
2:55 PM 19.4 °F 9.5 °F 12.2 °F 74% 30.15 in 10.0 mi WSW 8.1 mph - N/A   Scattered Clouds
3:15 PM 19.4 °F 8.6 °F 10.4 °F 68% 30.15 in 10.0 mi WSW 9.2 mph - N/A   Clear
3:35 PM 19.4 °F 7.9 °F 10.4 °F 68% 30.15 in 10.0 mi WSW 10.4 mph - N/A   Clear
4:15 PM 17.6 °F 8.2 °F 10.4 °F 73% 30.16 in 10.0 mi WSW 6.9 mph - N/A   Clear
4:35 PM 17.6 °F 8.2 °F 10.4 °F 73% 30.16 in 10.0 mi WSW 6.9 mph - N/A   Clear
5:15 PM 14.0 °F 2.9 °F 8.6 °F 79% 30.16 in 10.0 mi SW 8.1 mph - N/A   Clear
5:35 PM 14.0 °F 3.9 °F 8.6 °F 79% 30.16 in 10.0 mi WSW 6.9 mph - N/A   Clear
5:55 PM 14.0 °F 5.1 °F 8.6 °F 79% 30.16 in 10.0 mi SW 5.8 mph - N/A   Clear
6:15 PM 12.2 °F 1.7 °F 6.8 °F 79% 30.15 in 10.0 mi SW 6.9 mph - N/A   Clear
6:35 PM 12.2 °F 1.7 °F 6.8 °F 79% 30.15 in 10.0 mi SW 6.9 mph - N/A   Clear
6:55 PM 12.2 °F 2.9 °F 5.0 °F 73% 30.15 in 10.0 mi SW 5.8 mph - N/A   Clear
7:15 PM 12.2 °F 0.7 °F 5.0 °F 73% 30.14 in 10.0 mi SW 8.1 mph - N/A   Clear
7:35 PM 12.2 °F 0.7 °F 5.0 °F 73% 30.13 in 10.0 mi SW 8.1 mph - N/A   Clear
7:55 PM 12.2 °F 0.7 °F 5.0 °F 73% 30.12 in 10.0 mi SSW 8.1 mph - N/A   Clear
8:15 PM 12.2 °F 1.7 °F 5.0 °F 73% 30.13 in 10.0 mi SSW 6.9 mph - N/A   Clear
8:35 PM 10.4 °F -0.4 °F 5.0 °F 79% 30.12 in 10.0 mi SSW 6.9 mph - N/A   Scattered Clouds
8:55 PM 10.4 °F 0.8 °F 5.0 °F 79% 30.10 in 10.0 mi SSW 5.8 mph - N/A   Scattered Clouds
9:15 PM 10.4 °F 0.8 °F 5.0 °F 79% 30.11 in 10.0 mi SW 5.8 mph - N/A   Scattered Clouds
9:35 PM 10.4 °F 0.8 °F 5.0 °F 79% 30.10 in 10.0 mi SW 5.8 mph - N/A   Clear
10:15 PM 10.4 °F 0.8 °F 5.0 °F 79% 30.08 in 10.0 mi SSW 5.8 mph - N/A   Clear
10:35 PM 10.4 °F -0.4 °F 6.8 °F 85% 30.07 in 10.0 mi SW 6.9 mph - N/A   Clear
10:55 PM 12.2 °F 0.7 °F 8.6 °F 85% 30.07 in 10.0 mi SW 8.1 mph - N/A   Clear
11:15 PM 12.2 °F 1.7 °F 8.6 °F 85% 30.06 in 10.0 mi SW 6.9 mph - N/A   Clear
11:35 PM 12.2 °F -0.2 °F 8.6 °F 85% 30.05 in 10.0 mi SW 9.2 mph - N/A   Clear
11:55 PM 14.0 °F 2.0 °F 10.4 °F 86% 30.04 in 10.0 mi SW 9.2 mph - N/A   Clear